Regional Weather Roundup
Issued by NWS Albany, NY

Home | Current Version | Previous Version | Text Only | Print | Product List | Glossary On
Versions: 1 2 3 4 5 6 7 8 9 10 11 12 13 14 15 16 17 18 19 20 21 22 23 24 25 26 27 28
000
ASUS41 KALY 240810
RWRALY

NEW YORK STATE HOURLY WEATHER ROUNDUP
NATIONAL WEATHER SERVICE ALBANY NY
400 AM EDT FRI OCT 24 2014

NOTE: "FAIR" INDICATES FEW OR NO CLOUDS BELOW 12,000 FEET WITH NO
SIGNIFICANT WEATHER AND/OR NO OBSTRUCTIONS TO VISIBILITY.

NYZ032-033-038>043-046>054-057>066-NYZ062>081-240900-
EAST


CITY           SKY/WX    TMP DP  RH WIND       PRES   REMARKS
ALBANY         DRIZZLE   46  44  93 N5        29.81F FOG
GLENS FALLS    CLOUDY    45  43  93 CALM      29.80F
POUGHKEEPSIE   CLOUDY    50  44  80 CALM      29.78F
NEWBURGH       CLOUDY    48  45  87 CALM      29.80
MONTGOMERY     LGT RAIN  49  42  77 W6        29.78S
WHITE PLAINS   MOCLDY    49  44  83 NW9       29.76R
ISLIP          CLOUDY    51  46  83 NW16      29.71S
NEW YORK CITY  CLOUDY    52  44  74 NW17      29.77R
CENTRAL PARK   MOCLDY    52  42  69 VRB6      29.81R
$$

NYZ005>009-017-018-044>046-055-056-240900-
CENTRAL


CITY           SKY/WX    TMP DP  RH WIND       PRES   REMARKS
FULTON         CLOUDY    49  44  83 CALM      29.95R
SYRACUSE       CLOUDY    49  43  80 W8        29.94S
ROME           CLOUDY    47  41  80 NW9       29.91S
ELMIRA         CLOUDY    50  47  89 NE9       29.95R
BINGHAMTON     CLOUDY    45  42  89 N16G23    29.88S
MONTICELLO     CLOUDY    45  43  93 NW6       29.82S
$$

NYZ026>034-041>043-240900-
NORTH


CITY           SKY/WX    TMP DP  RH WIND       PRES   REMARKS
WATERTOWN      CLOUDY    48  40  73 CALM      29.95R
FORT DRUM      NOT AVBL
MASSENA        CLOUDY    46  40  79 N3        29.93F
SARANAC LAKE   CLOUDY    40  38  93 N6        29.84R
PLATTSBURGH    LGT RAIN  42  41  96 N13       29.86S FOG
$$

NYZ001>004-010>016-019>021-240900-
WEST


CITY           SKY/WX    TMP DP  RH WIND       PRES   REMARKS
NIAGARA FALLS  CLEAR     44  40  85 NW9       30.02S
BUFFALO        CLEAR     43  40  89 W3        30.02S
DUNKIRK        CLEAR     35  34  96 S3        30.04S
JAMESTOWN      CLEAR     43  39  87 NW5       30.03S
WELLSVILLE     CLOUDY    45  38  76 W14       29.99S
ROCHESTER      CLOUDY    51  44  77 NW9       29.98F
PENN YAN       CLOUDY    49  46  90 W3        29.96F
$$

             KEY
       WCI = WIND CHILL INDEX
       VSB = VISIBILITY
       HX  = HEAT INDEX
$$



USA.gov is the U.S. government's official web portal to all federal, state and local government web resources and services.